Location: Treviso
(45.6669°N, 12.2430°E)
Time: 00:41:43
(UTC+02:00)

ISS - Pass Details

Date: 28 May 2017
Orbit: 402 x 408 km, 51.6° (Epoch: 30 May)

Event Time Altitude Azimuth Distance (km) Brightness Sun altitude
Rises 23:12:40 0° 280° (W) 2,333 0.6 -17.8°
Reaches altitude 10° 23:14:56 10° 293° (WNW) 1,472 -0.3 -18.0°
Maximum altitude 23:17:52 28° 355° (N) 797 -1.7 -18.2°
Drops below altitude 10° 23:20:46 10° 57° (ENE) 1,470 -0.9 -18.4°
Sets 23:23:02 0° 69° (ENE) 2,330 0.0 -18.6°
